Weather History for KT82 - December, 2013

Change the Weather History Date:

Saturday, December 14, 2013

  Actual Average (KSAT) Record (KSAT)
Temperature  
Mean Temperature 42 °F 53 °F  
Max Temperature 52 °F 64 °F 85 °F (1908)
Min Temperature 32 °F 42 °F 22 °F (1966)
Degree Days  
Heating Degree Days 23 13  
Month to date heating degree days 160  
Since 1 July heating degree days 371  
Cooling Degree Days 0 0  
Month to date cooling degree days 7  
Year to date cooling degree days 3124  
Moisture  
Dew Point 33 °F    
Average Humidity 68    
Maximum Humidity 99    
Minimum Humidity 42    
Precipitation  
Precipitation 0.01 in 0.06 in 1.98 in (1937)
Month to date precipitation 0.83  
Year to date precipitation 31.19  
Snow  
Snow 0.00 in - - ()
Month to date snowfall  
Since 1 July snowfall  
Snow Depth -    
Sea Level Pressure  
Sea Level Pressure 30.11 in    
Wind  
Wind Speed 9 mph (NW)    
Max Wind Speed 23 mph    
Max Gust Speed 30 mph    
Visibility 9 miles    
Events Fog    
T = Trace of Precipitation, MM = Missing Value Source: NWS Daily Summary

Daily Weather History Graph

Daily Weather History Graph

Search for Another Location

Airport or City:

Trip Planner

Search our weather history database for the weather conditions in past years. The results will help you decide how hot, cold, wet, or windy it might be!

Date:

Astronomy

Dec. 14, 2013 Rise Set
Actual Time 7:24 AM CST 5:36 PM CST
Civil Twilight 6:57 AM CST 6:03 PM CST
Nautical Twilight 6:27 AM CST 6:33 PM CST
Astronomical Twilight 5:58 AM CST 7:02 PM CST
Moon 3:53 PM CST (12/14) 4:53 AM CST (12/14)
Length of Visible Light 11h 05m
Length of Day
10h 12m
Waxing Gibbous, 94% of the Moon is Illuminated
Dec 14
Waxing Gibbous
Dec 17
Full
Dec 25
Last Quarter
Jan 1
New
Jan 7
First Quarter

Hourly Weather History & Observations

Time (CST) Temp. Windchill Dew Point Humidity Pressure Visibility Wind Dir Wind Speed Gust Speed Precip Events Conditions
12:15 AM 43.7 °F 41.1 °F 43.2 °F 98% 29.91 in 0.2 mi WSW 4.6 mph - N/A Fog Fog
12:35 AM 43.7 °F 41.1 °F 43.0 °F 97% 29.91 in 0.2 mi West 4.6 mph - N/A Fog Fog
12:55 AM 42.8 °F 41.1 °F 42.3 °F 98% 29.90 in 0.2 mi WSW 3.5 mph - N/A Fog Fog
1:15 AM 41.4 °F 36.2 °F 41.0 °F 99% 29.89 in 0.2 mi SW 8.1 mph - N/A Fog Fog
1:35 AM 41.2 °F 38.2 °F 40.6 °F 98% 29.89 in 0.5 mi West 4.6 mph - N/A Fog Fog
1:55 AM 40.6 °F 38.6 °F 40.1 °F 98% 29.89 in 7.0 mi WNW 3.5 mph - N/A   Clear
2:15 AM 39.7 °F 36.5 °F 39.2 °F 98% 29.88 in 10.0 mi West 4.6 mph - N/A   Clear
2:35 AM 39.0 °F 34.8 °F 38.3 °F 97% 29.89 in 10.0 mi WSW 5.8 mph - 0.01 in   Clear
2:55 AM 38.3 °F 33.9 °F 37.6 °F 97% 29.88 in 7.0 mi SW 5.8 mph - 0.01 in   Clear
3:15 AM 38.3 °F 33.2 °F 37.8 °F 98% 29.88 in 10.0 mi SW 6.9 mph - N/A   Clear
3:35 AM 39.7 °F 34.9 °F 38.7 °F 96% 29.89 in 10.0 mi WSW 6.9 mph - N/A   Clear
3:55 AM 41.4 °F 36.8 °F 38.8 °F 91% 29.90 in 10.0 mi West 6.9 mph - N/A   Clear
4:15 AM 42.1 °F 37.1 °F 38.7 °F 88% 29.91 in 10.0 mi WSW 8.1 mph - N/A   Clear
4:35 AM 43.2 °F 39.0 °F 38.7 °F 84% 29.92 in 10.0 mi West 6.9 mph - N/A   Clear
4:55 AM 42.8 °F 38.0 °F 38.3 °F 84% 29.92 in 10.0 mi WSW 8.1 mph - N/A   Clear
5:15 AM 42.6 °F 39.0 °F 38.1 °F 84% 29.93 in 10.0 mi West 5.8 mph - N/A   Clear
5:35 AM 42.6 °F 38.4 °F 37.9 °F 83% 29.94 in 10.0 mi West 6.9 mph - N/A   Clear
5:55 AM 41.9 °F 40.0 °F 37.4 °F 84% 29.95 in 10.0 mi West 3.5 mph - N/A   Clear
6:15 AM 40.5 °F 35.8 °F 36.7 °F 86% 29.96 in 10.0 mi West 6.9 mph - N/A   Clear
6:35 AM 42.3 °F 37.9 °F 35.6 °F 77% 29.97 in 10.0 mi WNW 6.9 mph - N/A   Clear
6:55 AM 43.3 °F 41.7 °F 34.7 °F 72% 29.99 in 10.0 mi NW 3.5 mph - N/A   Clear
7:15 AM 44.6 °F 39.7 °F 34.2 °F 67% 30.00 in 10.0 mi NNW 9.2 mph 18.4 mph N/A   Clear
7:35 AM 43.2 °F 39.0 °F 33.4 °F 69% 30.01 in 10.0 mi NW 6.9 mph - N/A   Clear
7:55 AM 43.7 °F 39.1 °F 33.4 °F 67% 30.03 in 10.0 mi NW 8.1 mph - N/A   Clear
8:15 AM 44.1 °F 40.1 °F 32.9 °F 65% 30.04 in 10.0 mi NNW 6.9 mph 18.4 mph N/A   Clear
8:35 AM 44.2 °F 38.0 °F 32.7 °F 64% 30.06 in 10.0 mi NNW 12.7 mph 17.3 mph N/A   Clear
8:55 AM 44.8 °F 37.7 °F 32.7 °F 63% 30.07 in 10.0 mi NNW 16.1 mph 23.0 mph N/A   Clear
9:15 AM 45.3 °F 37.3 °F 33.1 °F 62% 30.08 in 10.0 mi North 20.7 mph 29.9 mph N/A   Clear
9:35 AM 45.7 °F 38.8 °F 33.4 °F 62% 30.09 in 10.0 mi NNW 16.1 mph 27.6 mph N/A   Clear
9:55 AM 46.4 °F 39.0 °F 33.6 °F 61% 30.11 in 10.0 mi NNW 19.6 mph 23.0 mph N/A   Clear
10:15 AM 46.6 °F - 34.5 °F 63% 30.12 in 10.0 mi NNW 16.1 mph 26.5 mph N/A   Clear
10:35 AM 47.3 °F - 34.7 °F 62% 30.14 in 10.0 mi North 13.8 mph 24.2 mph N/A   Clear
10:55 AM 47.8 °F - 35.2 °F 62% 30.14 in 10.0 mi NNW 15.0 mph - N/A   Clear
11:15 AM 47.7 °F - 34.9 °F 61% 30.16 in 10.0 mi North 16.1 mph 23.0 mph N/A   Scattered Clouds
11:35 AM 47.3 °F - 34.0 °F 60% 30.16 in 10.0 mi NNW 19.6 mph 26.5 mph N/A   Mostly Cloudy
11:55 AM 47.7 °F - 34.5 °F 60% 30.16 in 10.0 mi North 13.8 mph 20.7 mph N/A   Overcast
12:15 PM 48.7 °F - 34.5 °F 58% 30.16 in 10.0 mi North 17.3 mph 28.8 mph N/A   Scattered Clouds
12:35 PM 49.5 °F - 34.5 °F 56% 30.16 in 10.0 mi North 19.6 mph 24.2 mph N/A   Clear
12:55 PM 50.0 °F - 35.1 °F 57% 30.16 in 10.0 mi NNW 16.1 mph 21.9 mph N/A   Clear
1:15 PM 50.2 °F - 35.6 °F 57% 30.16 in 10.0 mi North 15.0 mph 23.0 mph N/A   Clear
1:35 PM 49.8 °F - 35.4 °F 58% 30.16 in 10.0 mi North 23.0 mph 28.8 mph N/A   Clear
1:55 PM 50.2 °F - 35.1 °F 56% 30.15 in 10.0 mi North 19.6 mph 27.6 mph N/A   Clear
2:15 PM 50.7 °F - 34.7 °F 54% 30.15 in 10.0 mi North 18.4 mph 26.5 mph N/A   Clear
2:35 PM 51.1 °F - 34.5 °F 53% 30.16 in 10.0 mi NNW 17.3 mph - N/A   Clear
2:55 PM 51.8 °F - 32.7 °F 48% 30.15 in 10.0 mi NNW 19.6 mph 26.5 mph N/A   Clear
3:15 PM 52.0 °F - 32.0 °F 47% 30.16 in 10.0 mi NNW 18.4 mph - N/A   Clear
3:35 PM 52.0 °F - 30.9 °F 45% 30.16 in 10.0 mi North 18.4 mph 25.3 mph N/A   Clear
3:55 PM 52.7 °F - 32.0 °F 45% 30.17 in 10.0 mi North 20.7 mph 26.5 mph N/A   Clear
4:15 PM 51.1 °F - 29.1 °F 43% 30.18 in 10.0 mi North 23.0 mph 28.8 mph N/A   Clear
4:35 PM 50.5 °F - 28.4 °F 42% 30.19 in 10.0 mi North 23.0 mph 27.6 mph N/A   Clear
4:55 PM 49.8 °F - 28.2 °F 43% 30.21 in 10.0 mi North 18.4 mph 24.2 mph N/A   Clear
5:15 PM 48.9 °F - 28.4 °F 45% 30.21 in 10.0 mi North 12.7 mph 18.4 mph N/A   Clear
5:35 PM 47.5 °F - 27.7 °F 46% 30.22 in 10.0 mi North 13.8 mph 19.6 mph N/A   Clear
5:55 PM 46.4 °F 40.1 °F 27.5 °F 48% 30.23 in 10.0 mi North 15.0 mph 21.9 mph N/A   Clear
6:15 PM 45.9 °F 40.8 °F 27.3 °F 48% 30.24 in 10.0 mi North 10.4 mph 19.6 mph N/A   Clear
6:35 PM 45.3 °F 40.1 °F 27.5 °F 50% 30.25 in 10.0 mi North 10.4 mph 17.3 mph N/A   Clear
6:55 PM 44.6 °F 39.7 °F 27.3 °F 51% 30.26 in 10.0 mi North 9.2 mph - N/A   Clear
7:15 PM 43.7 °F 39.1 °F 27.5 °F 53% 30.26 in 10.0 mi North 8.1 mph - N/A   Clear
7:35 PM 42.6 °F 37.8 °F 27.7 °F 56% 30.27 in 10.0 mi North 8.1 mph - N/A   Clear
7:55 PM 41.5 °F 37.8 °F 27.9 °F 58% 30.28 in 10.0 mi North 5.8 mph - N/A   Clear
8:15 PM 41.2 °F 39.2 °F 27.5 °F 58% 30.29 in 10.0 mi NNW 3.5 mph - N/A   Clear
8:35 PM 38.7 °F - 27.5 °F 64% 30.30 in 10.0 mi Calm Calm - N/A   Clear
8:55 PM 36.7 °F - 27.7 °F 70% 30.31 in 10.0 mi Calm Calm - N/A   Clear
9:15 PM 37.4 °F 33.8 °F 28.0 °F 69% 30.31 in 10.0 mi North 4.6 mph - N/A   Clear
9:35 PM 36.9 °F 32.2 °F 27.9 °F 70% 30.32 in 10.0 mi North 5.8 mph - N/A   Clear
9:55 PM 36.0 °F 31.1 °F 27.3 °F 71% 30.33 in 10.0 mi North 5.8 mph - N/A   Clear
10:15 PM 36.5 °F 33.9 °F 27.3 °F 69% 30.33 in 10.0 mi NNW 3.5 mph - N/A   Clear
10:35 PM 33.8 °F 30.8 °F 27.0 °F 76% 30.34 in 10.0 mi WNW 3.5 mph - N/A   Clear
10:55 PM 34.7 °F 31.8 °F 26.6 °F 72% 30.34 in 10.0 mi NW 3.5 mph - N/A   Clear
11:15 PM 34.5 °F - 26.6 °F 73% 30.34 in 10.0 mi Calm Calm - N/A   Clear
11:35 PM 32.0 °F 28.7 °F 26.8 °F 81% 30.34 in 10.0 mi NNW 3.5 mph - N/A   Clear
11:55 PM 33.8 °F 28.6 °F 26.6 °F 75% 30.34 in 10.0 mi North 5.8 mph - N/A   Clear